^^
Station Historical Data
 
Daily Summary for March 23, 2019 Units:  English    Metric   Both
« Previous Day
Next Day »
Daily Weekly Monthly Yearly Custom
  Current: High: Low: Average:
Temperature: 53.4 °F TemperatureF °F 44.7 °F 48.2 °F
Dew Point: 43.1 °F DewpointF °F 40.3 °F 42.9 °F
Humidity: 68% Humidity% 56% 82%
Wind Speed: 0.0mph WindSpeedMPHmph 0.0mph 1.2mph
Wind Gust: 0.0mph WindSpeedGustMPHmph - -
WindCalm - - SW
Pressure: 30.13 in PressureIn in 30.09 in -
Precipitation: 1.04 in      
Historical Graphs
 
 
Tabular Data for March 23, 2019
Time Temperature Dew Point Pressure Wind Wind Speed Wind Gust Humidity Rainfall Rate (Hourly) solar Conditions
TemperatureF °F DewpointF °F PressureIn in Calm     Humidity% HourlyPrecipIn in SolarRadiationWatts/m^2 W/m2 Conditions
00:04 46.9 °F 43.2 °F 30.12 in Calm     87% 0.09 in 0.00 W/m2 RA
00:09 46.9 °F 43.5 °F 30.12 in Calm     88% 0.08 in 0.00 W/m2 RA
00:13 46.9 °F 43.5 °F 30.12 in Calm     88% 0.08 in 0.00 W/m2 OVC
00:19 46.9 °F 43.5 °F 30.12 in Calm     88% 0.10 in 0.00 W/m2 RA
00:23 46.9 °F 43.5 °F 30.13 in Calm     88% 0.09 in 0.00 W/m2 RA
00:29 46.8 °F 43.4 °F 30.12 in Calm     88% 0.10 in 0.00 W/m2 RA
00:34 46.8 °F 43.4 °F 30.12 in Calm     88% 0.11 in 0.00 W/m2 RA
00:38 46.8 °F 43.4 °F 30.12 in Calm     88% 0.11 in 0.00 W/m2 RA
00:44 46.9 °F 43.5 °F 30.12 in Calm     88% 0.12 in 0.00 W/m2 RA
00:48 46.9 °F 43.5 °F 30.12 in Calm     88% 0.12 in 0.00 W/m2 RA
00:53 46.9 °F 43.5 °F 30.12 in Calm     88% 0.12 in 0.00 W/m2 RA
00:58 46.9 °F 43.5 °F 30.12 in Calm     88% 0.13 in 0.00 W/m2 RA
01:04 46.9 °F 43.5 °F 30.12 in Calm     88% 0.13 in 0.00 W/m2 RA
01:08 46.9 °F 43.5 °F 30.12 in Calm     88% 0.14 in 0.00 W/m2 RA
01:14 46.9 °F 43.5 °F 30.12 in Calm     88% 0.15 in 0.00 W/m2 RA
01:19 46.9 °F 43.5 °F 30.12 in Calm     88% 0.16 in 0.00 W/m2 RA
01:23 46.8 °F 43.4 °F 30.12 in Calm     88% 0.17 in 0.00 W/m2 RA
01:28 46.8 °F 43.4 °F 30.12 in Calm     88% 0.17 in 0.00 W/m2 RA
01:34 46.8 °F 43.4 °F 30.12 in SSE 2.3 mph 0.2 mph 88% 0.17 in 0.00 W/m2 RA
01:38 46.8 °F 43.4 °F 30.12 in Calm     88% 0.16 in 0.00 W/m2 RA
01:44 46.8 °F 43.4 °F 30.12 in Calm     88% 0.15 in 0.00 W/m2 RA
01:49 46.7 °F 43.3 °F 30.12 in Calm     88% 0.15 in 0.00 W/m2 RA
01:54 46.7 °F 43.3 °F 30.11 in Calm     88% 0.15 in 0.00 W/m2 RA
01:58 46.7 °F 43.3 °F 30.11 in Calm     88% 0.15 in 0.00 W/m2 RA
02:04 46.7 °F 43.3 °F 30.11 in Calm     88% 0.14 in 0.00 W/m2 RA
02:08 46.7 °F 43.3 °F 30.11 in Calm     88% 0.14 in 0.00 W/m2 RA
02:14 46.7 °F 43.3 °F 30.11 in Calm     88% 0.13 in 0.00 W/m2 RA
02:19 46.6 °F 43.2 °F 30.11 in Calm     88% 0.12 in 0.00 W/m2 RA
02:24 46.6 °F 43.2 °F 30.10 in Calm     88% 0.11 in 0.00 W/m2 RA
02:29 46.6 °F 43.2 °F 30.10 in Calm     88% 0.10 in 0.00 W/m2 RA
02:33 46.6 °F 43.2 °F 30.10 in Calm     88% 0.10 in 0.00 W/m2 RA
02:38 46.6 °F 43.2 °F 30.10 in Calm     88% 0.10 in 0.00 W/m2 RA
02:44 46.6 °F 43.2 °F 30.10 in Calm     88% 0.10 in 0.00 W/m2 RA
02:48 46.6 °F 43.2 °F 30.10 in Calm     88% 0.10 in 0.00 W/m2 RA
02:54 46.7 °F 43.3 °F 30.10 in Calm     88% 0.09 in 0.00 W/m2 RA
02:59 46.6 °F 43.2 °F 30.10 in Calm     88% 0.09 in 0.00 W/m2 RA
03:03 46.7 °F 43.3 °F 30.10 in Calm     88% 0.09 in 0.00 W/m2 RA
03:08 46.7 °F 43.3 °F 30.10 in Calm     88% 0.09 in 0.00 W/m2 RA
03:14 46.7 °F 43.3 °F 30.10 in Calm     88% 0.09 in 0.00 W/m2 RA
03:18 46.7 °F 43.3 °F 30.09 in Calm     88% 0.10 in 0.00 W/m2 RA
03:24 46.7 °F 43.3 °F 30.09 in Calm     88% 0.10 in 0.00 W/m2 RA
03:29 46.7 °F 43.3 °F 30.09 in Calm     88% 0.09 in 0.00 W/m2 RA
03:34 46.7 °F 43.6 °F 30.09 in Calm     89% 0.09 in 0.00 W/m2 RA
03:38 46.7 °F 43.6 °F 30.09 in Calm     89% 0.10 in 0.00 W/m2 RA
03:44 46.7 °F 43.6 °F 30.09 in Calm     89% 0.10 in 0.00 W/m2 RA
03:48 46.7 °F 43.6 °F 30.09 in Calm     89% 0.12 in 0.00 W/m2 RA
03:54 46.7 °F 43.6 °F 30.09 in Calm     89% 0.13 in 0.00 W/m2 RA
03:59 46.8 °F 43.7 °F 30.09 in Calm     89% 0.12 in 0.00 W/m2 RA
04:04 46.7 °F 43.6 °F 30.09 in Calm     89% 0.12 in 0.00 W/m2 RA
04:09 46.7 °F 43.6 °F 30.09 in Calm     89% 0.11 in 0.00 W/m2 RA
04:14 46.8 °F 43.7 °F 30.09 in Calm     89% 0.11 in 0.00 W/m2 RA
04:18 46.8 °F 43.7 °F 30.09 in Calm     89% 0.11 in 0.00 W/m2 RA
04:24 46.8 °F 43.7 °F 30.09 in Calm     89% 0.11 in 0.00 W/m2 RA
04:29 46.8 °F 43.7 °F 30.09 in Calm     89% 0.12 in 0.00 W/m2 RA
04:34 46.7 °F 43.6 °F 30.09 in Calm     89% 0.12 in 0.00 W/m2 RA
04:39 46.7 °F 43.6 °F 30.09 in Calm     89% 0.12 in 0.00 W/m2 RA
04:44 46.7 °F 43.6 °F 30.09 in Calm     89% 0.13 in 0.00 W/m2 RA
04:48 46.7 °F 43.6 °F 30.09 in Calm     89% 0.12 in 0.00 W/m2 RA
04:54 46.7 °F 43.6 °F 30.09 in Calm     89% 0.14 in 0.00 W/m2 RA
04:58 46.7 °F 43.6 °F 30.09 in Calm     89% 0.16 in 0.00 W/m2 RA
05:04 46.7 °F 43.6 °F 30.10 in Calm     89% 0.17 in 0.00 W/m2 RA
05:09 46.7 °F 43.6 °F 30.10 in WNW 3.5 mph   89% 0.19 in 0.00 W/m2 RA
05:14 46.6 °F 43.5 °F 30.10 in Calm     89% 0.20 in 0.00 W/m2 RA
05:19 46.7 °F 43.6 °F 30.10 in Calm     89% 0.21 in 0.00 W/m2 RA
05:24 46.6 °F 43.5 °F 30.10 in Calm     89% 0.21 in 0.00 W/m2 RA
05:28 46.6 °F 43.5 °F 30.10 in Calm     89% 0.22 in 0.00 W/m2 RA
05:34 46.5 °F 43.4 °F 30.10 in Calm     89% 0.21 in 0.00 W/m2 RA
05:39 46.4 °F 43.3 °F 30.10 in Calm     89% 0.21 in 0.00 W/m2 RA
05:44 46.4 °F 43.3 °F 30.10 in Calm     89% 0.19 in 0.00 W/m2 RA
05:49 46.3 °F 43.2 °F 30.10 in Calm     89% 0.17 in 0.00 W/m2 RA
05:54 46.3 °F 43.2 °F 30.10 in Calm     89% 0.16 in 0.00 W/m2 RA
05:58 46.3 °F 43.2 °F 30.10 in Calm     89% 0.14 in 0.00 W/m2 RA
06:04 46.2 °F 43.1 °F 30.10 in Calm     89% 0.14 in 0.00 W/m2 RA
06:09 46.1 °F 43.0 °F 30.10 in Calm     89% 0.12 in 0.00 W/m2 RA
06:14 46.1 °F 43.0 °F 30.10 in Calm     89% 0.11 in 0.00 W/m2 RA
06:19 46.0 °F 42.9 °F 30.10 in Calm     89% 0.10 in 0.00 W/m2 RA
06:24 45.9 °F 42.8 °F 30.11 in Calm     89% 0.09 in 0.00 W/m2 RA
06:28 45.9 °F 42.8 °F 30.11 in Calm     89% 0.09 in 0.00 W/m2 RA
06:34 45.9 °F 42.8 °F 30.11 in Calm     89% 0.09 in 0.00 W/m2 RA
06:39 45.8 °F 42.7 °F 30.11 in Calm     89% 0.08 in 0.00 W/m2 RA
06:43 45.8 °F 42.7 °F 30.11 in Calm     89% 0.08 in 0.00 W/m2 RA
06:49 45.8 °F 42.7 °F 30.11 in Calm     89% 0.08 in 0.00 W/m2 RA
06:54 45.7 °F 42.6 °F 30.11 in Calm     89% 0.08 in 0.00 W/m2 RA
06:59 45.6 °F 42.5 °F 30.11 in Calm     89% 0.08 in 0.00 W/m2 RA
07:03 45.6 °F 42.5 °F 30.12 in Calm     89% 0.09 in 0.00 W/m2 RA
07:08 45.6 °F 42.5 °F 30.12 in Calm     89% 0.08 in 0.00 W/m2 RA
07:13 45.5 °F 42.4 °F 30.12 in Calm     89% 0.08 in 0.00 W/m2 RA
07:19 45.5 °F 42.4 °F 30.12 in Calm     89% 0.08 in 0.00 W/m2 RA
07:23 45.4 °F 42.3 °F 30.13 in Calm     89% 0.09 in 0.00 W/m2 RA
07:29 45.4 °F 42.3 °F 30.13 in Calm     89% 0.09 in 5.00 W/m2 RA
07:34 45.4 °F 42.3 °F 30.13 in Calm     89% 0.09 in 7.00 W/m2 RA
07:38 45.3 °F 42.2 °F 30.13 in Calm     89% 0.10 in 7.00 W/m2 RA
07:43 45.3 °F 42.2 °F 30.13 in Calm     89% 0.10 in 11.00 W/m2 RA
07:49 45.3 °F 42.2 °F 30.13 in Calm     89% 0.10 in 11.00 W/m2 RA
07:53 45.2 °F 42.2 °F 30.13 in Calm     89% 0.10 in 9.00 W/m2 RA
07:59 45.3 °F 42.2 °F 30.14 in Calm     89% 0.10 in 11.00 W/m2 RA
08:04 45.3 °F 42.2 °F 30.14 in Calm     89% 0.10 in 11.00 W/m2 RA
08:08 45.2 °F 42.2 °F 30.14 in Calm     89% 0.10 in 12.00 W/m2 RA
08:13 45.2 °F 42.2 °F 30.14 in Calm     89% 0.10 in 14.00 W/m2 RA
08:19 45.2 °F 42.2 °F 30.14 in Calm     89% 0.10 in 16.00 W/m2 RA
08:23 45.2 °F 42.2 °F 30.14 in Calm     89% 0.09 in 28.00 W/m2 RA
08:29 45.2 °F 42.2 °F 30.14 in Calm     89% 0.08 in 28.00 W/m2 OVC
08:34 45.3 °F 42.2 °F 30.14 in Calm     89% 0.07 in 28.00 W/m2 OVC
08:39 45.3 °F 42.2 °F 30.14 in Calm     89% 0.07 in 19.00 W/m2 RA
08:43 45.3 °F 42.2 °F 30.14 in WNW 2.3 mph   89% 0.08 in 23.00 W/m2 RA
08:49 45.4 °F 42.3 °F 30.14 in SE 1.9 mph 0.1 mph 89% 0.07 in 32.00 W/m2 RA
08:53 45.4 °F 42.3 °F 30.13 in SE 1.9 mph 0.2 mph 89% 0.06 in 46.00 W/m2 OVC
08:59 45.3 °F 42.2 °F 30.13 in Calm     89% 0.05 in 46.00 W/m2 OVC
09:04 45.3 °F 42.2 °F 30.13 in SE 1.9 mph 0.1 mph 89% 0.04 in 35.00 W/m2 OVC
09:09 45.2 °F 42.2 °F 30.13 in SE 1.9 mph 0.2 mph 89% 0.04 in 46.00 W/m2 OVC
09:14 45.1 °F 42.1 °F 30.13 in South 5.6 mph 3.5 mph 89% 0.03 in 56.00 W/m2 OVC
09:18 44.9 °F 41.9 °F 30.13 in Calm     89% 0.03 in 70.00 W/m2 OVC
09:23 44.9 °F 41.9 °F 30.13 in Calm     89% 0.02 in 84.00 W/m2 OVC
09:29 44.8 °F 41.8 °F 30.13 in Calm     89% 0.02 in 63.00 W/m2 OVC
09:33 44.8 °F 41.8 °F 30.13 in Calm     89% 0.02 in 54.00 W/m2 OVC
09:39 44.7 °F 41.7 °F 30.13 in Calm     89% 0.01 in 60.00 W/m2 OVC
09:44 44.7 °F 41.7 °F 30.14 in Calm     89% 0.00 in 62.00 W/m2 OVC
09:48 44.7 °F 41.4 °F 30.14 in Calm     88% 0.00 in 69.00 W/m2 OVC
09:53 44.7 °F 41.4 °F 30.14 in SE 1.9 mph 0.2 mph 88% 0.00 in 74.00 W/m2 OVC
09:59 44.8 °F 41.8 °F 30.14 in SE 2.3 mph 0.2 mph 89% 0.00 in 74.00 W/m2 OVC
10:03 44.8 °F 41.8 °F 30.14 in SE 1.9 mph 0.1 mph 89% 0.00 in 81.00 W/m2 OVC
10:09 44.9 °F 41.9 °F 30.14 in SE 2.3 mph 0.1 mph 89% 0.00 in 91.00 W/m2 OVC
10:14 45.0 °F 42.0 °F 30.14 in SE 5.6 mph 2.7 mph 89% 0.00 in 107.00 W/m2 OVC
10:18 45.0 °F 42.0 °F 30.14 in Calm     89% 0.00 in 113.00 W/m2 OVC
10:23 45.1 °F 42.1 °F 30.14 in Calm     89% 0.00 in 141.00 W/m2 OVC
10:29 45.2 °F 42.2 °F 30.14 in Calm     89% 0.00 in 188.00 W/m2 OVC
10:33 45.4 °F 42.3 °F 30.15 in Calm     89% 0.00 in 193.00 W/m2 OVC
10:39 45.6 °F 42.5 °F 30.15 in Calm     89% 0.00 in 214.00 W/m2 OVC
10:44 45.9 °F 42.8 °F 30.15 in Calm     89% 0.00 in 353.00 W/m2 OVC
10:49 46.1 °F 43.0 °F 30.15 in SE 2.3 mph 0.3 mph 89% 0.00 in 383.00 W/m2 OVC
10:53 46.4 °F 43.3 °F 30.15 in Calm     89% 0.00 in 508.00 W/m2 OVC
10:59 46.8 °F 43.7 °F 30.15 in Calm     89% 0.00 in 520.00 W/m2 OVC
11:03 47.2 °F 44.4 °F 30.15 in SW 3.7 mph 0.8 mph 90% 0.00 in 318.00 W/m2 OVC
11:09 47.6 °F 44.8 °F 30.16 in West 5.6 mph 0.9 mph 90% 0.00 in 230.00 W/m2 OVC
11:14 47.6 °F 44.5 °F 30.16 in WSW 2.3 mph 0.2 mph 89% 0.00 in 411.00 W/m2 OVC
11:19 47.8 °F 44.7 °F 30.16 in WSW 3.5 mph   89% 0.00 in 429.00 W/m2 OVC
11:23 47.9 °F 44.8 °F 30.16 in WSW 3.7 mph 1.4 mph 89% 0.00 in 171.00 W/m2 OVC
11:28 48.0 °F 44.6 °F 30.17 in WSW 2.3 mph 0.3 mph 88% 0.00 in 283.00 W/m2 OVC
11:33 48.1 °F 44.7 °F 30.17 in Calm     88% 0.00 in 346.00 W/m2 OVC
11:39 48.3 °F 44.6 °F 30.17 in West 9.2 mph 5.3 mph 87% 0.00 in 227.00 W/m2 OVC
11:43 48.3 °F 44.3 °F 30.17 in WNW 3.5 mph 0.2 mph 86% 0.00 in 294.00 W/m2 OVC
11:49 48.5 °F 44.5 °F 30.16 in WNW 3.7 mph 0.7 mph 86% 0.00 in 438.00 W/m2 OVC
11:53 48.9 °F 44.9 °F 30.16 in West 2.3 mph   86% 0.00 in 492.00 W/m2 OVC
11:58 49.2 °F 44.9 °F 30.16 in Calm     85% 0.00 in 480.00 W/m2 OVC
12:04 49.7 °F 45.4 °F 30.16 in WSW 2.3 mph 1.1 mph 85% 0.00 in 552.00 W/m2 OVC
12:09 50.1 °F 45.5 °F 30.16 in WSW 2.3 mph 0.1 mph 84% 0.00 in 494.00 W/m2 OVC
12:14 50.6 °F 45.9 °F 30.16 in SW 2.3 mph 0.2 mph 84% 0.00 in 403.00 W/m2 OVC
12:19 51.2 °F 45.9 °F 30.16 in Calm     82% 0.00 in 287.00 W/m2 OVC
12:24 51.4 °F 45.4 °F 30.16 in Calm     80% 0.00 in 232.00 W/m2 OVC
12:28 51.6 °F 45.3 °F 30.16 in Calm     79% 0.00 in 183.00 W/m2 OVC
12:34 51.6 °F 44.3 °F 30.16 in Calm     76% 0.00 in 204.00 W/m2 OVC
12:39 51.7 °F 44.4 °F 30.16 in West 3.7 mph 1.0 mph 76% 0.00 in 227.00 W/m2 OVC
12:44 51.7 °F 44.0 °F 30.16 in West 2.3 mph 0.1 mph 75% 0.00 in 225.00 W/m2 OVC
12:49 51.7 °F 44.4 °F 30.16 in West 1.9 mph   76% 0.00 in 264.00 W/m2 OVC
12:54 51.7 °F 44.4 °F 30.16 in SW 9.2 mph 5.9 mph 76% 0.00 in 297.00 W/m2 OVC
12:58 51.8 °F 44.1 °F 30.16 in WSW 7.4 mph 4.9 mph 75% 0.00 in 302.00 W/m2 OVC
13:04 51.8 °F 44.1 °F 30.16 in SW 2.3 mph 0.5 mph 75% 0.00 in 267.00 W/m2 OVC
13:09 51.9 °F 44.2 °F 30.16 in SW 3.7 mph 0.7 mph 75% 0.00 in 325.00 W/m2 OVC
13:14 52.0 °F 44.0 °F 30.15 in WSW 2.3 mph 0.3 mph 74% 0.00 in 390.00 W/m2 OVC
13:19 52.2 °F 43.4 °F 30.15 in WSW 2.3 mph 0.1 mph 72% 0.00 in 497.00 W/m2 OVC
13:24 52.3 °F 42.8 °F 30.15 in WSW 2.3 mph 0.2 mph 70% 0.00 in 383.00 W/m2 OVC
13:28 52.5 °F 42.6 °F 30.15 in WSW 2.3 mph   69% 0.00 in 439.00 W/m2 OVC
13:34 52.9 °F 43.4 °F 30.14 in WSW 2.3 mph 0.1 mph 70% 0.00 in 578.00 W/m2 OVC
13:38 53.3 °F 42.6 °F 30.14 in West 2.3 mph   67% 0.00 in 816.00 W/m2 OVC
13:44 54.2 °F 44.6 °F 30.14 in ESE 2.3 mph 0.1 mph 70% 0.00 in 802.00 W/m2 OVC
13:49 54.9 °F 44.1 °F 30.14 in SSE 1.9 mph 0.3 mph 67% 0.00 in 318.00 W/m2 OVC
13:54 55.2 °F 43.6 °F 30.14 in South 2.3 mph 0.1 mph 65% 0.00 in 798.00 W/m2 OVC
13:58 55.7 °F 42.5 °F 30.14 in WSW 11.5 mph 4.5 mph 61% 0.00 in 895.00 W/m2 OVC
14:04 56.3 °F 43.9 °F 30.14 in SSE 3.5 mph 0.5 mph 63% 0.00 in 823.00 W/m2 OVC
14:08 56.9 °F 41.4 °F 30.14 in West 7.4 mph 7.4 mph 56% 0.00 in 796.00 W/m2 OVC
14:14 57.5 °F 41.9 °F 30.13 in SW 2.3 mph 0.3 mph 56% 0.00 in 805.00 W/m2 OVC
14:19 57.6 °F 42.0 °F 30.13 in West 2.3 mph 0.5 mph 56% 0.00 in 812.00 W/m2 OVC
14:24 57.8 °F 42.7 °F 30.13 in West 5.8 mph 1.4 mph 57% 0.00 in 814.00 W/m2 OVC
14:28 58.0 °F 43.3 °F 30.13 in WSW 5.6 mph 2.6 mph 58% 0.00 in 255.00 W/m2 OVC
14:34 58.0 °F 43.3 °F 30.13 in Calm     58% 0.00 in 227.00 W/m2 OVC
14:38 57.8 °F 42.7 °F 30.13 in Calm     57% 0.00 in 134.00 W/m2 OVC
14:44 57.4 °F 42.3 °F 30.13 in West 2.3 mph 0.1 mph 57% 0.00 in 146.00 W/m2 OVC
14:49 57.0 °F 42.8 °F 30.13 in West 5.8 mph 3.5 mph 59% 0.00 in 174.00 W/m2 OVC
14:54 56.3 °F 43.0 °F 30.13 in Calm     61% 0.00 in 195.00 W/m2 OVC
14:59 56.0 °F 43.2 °F 30.13 in WSW 7.4 mph 4.4 mph 62% 0.01 in 789.00 W/m2 RA
15:04 56.0 °F 43.2 °F 30.13 in WSW 5.8 mph 2.7 mph 62% 0.01 in 756.00 W/m2 RA
15:08 56.3 °F 44.3 °F 30.13 in WSW 6.9 mph 1.4 mph 64% 0.01 in 698.00 W/m2 OVC
15:14 56.3 °F 43.0 °F 30.13 in WNW 11.5 mph 2.9 mph 61% 0.01 in 116.00 W/m2 OVC
15:19 56.1 °F 42.8 °F 30.13 in SW 5.8 mph 1.1 mph 61% 0.01 in 146.00 W/m2 OVC
15:24 55.9 °F 42.6 °F 30.13 in Calm     61% 0.01 in 134.00 W/m2 OVC
15:29 55.5 °F 41.8 °F 30.13 in West 5.8 mph 2.8 mph 60% 0.01 in 116.00 W/m2 OVC
15:34 55.2 °F 42.0 °F 30.14 in WSW 2.3 mph 0.2 mph 61% 0.01 in 251.00 W/m2 OVC
15:38 55.1 °F 42.3 °F 30.13 in SE 2.3 mph   62% 0.01 in 436.00 W/m2 OVC
15:44 55.1 °F 43.1 °F 30.14 in West 2.3 mph 0.2 mph 64% 0.01 in 123.00 W/m2 OVC
15:48 55.1 °F 42.3 °F 30.14 in SW 5.8 mph 1.4 mph 62% 0.01 in 128.00 W/m2 OVC
15:54 55.0 °F 42.2 °F 30.14 in SW 2.3 mph 0.6 mph 62% 0.01 in 128.00 W/m2 OVC
15:59 54.9 °F 42.9 °F 30.13 in Calm     64% 0.00 in 95.00 W/m2 OVC
16:03 54.8 °F 43.7 °F 30.13 in Calm     66% 0.00 in 84.00 W/m2 OVC
16:08 54.6 °F 42.3 °F 30.14 in SW 2.3 mph 0.3 mph 63% 0.00 in 111.00 W/m2 OVC
16:14 54.2 °F 41.9 °F 30.14 in Calm     63% 0.00 in 130.00 W/m2 OVC
16:18 53.9 °F 40.3 °F 30.14 in Calm     60% 0.00 in 81.00 W/m2 OVC
16:24 53.7 °F 42.2 °F 30.14 in Calm     65% 0.00 in 77.00 W/m2 OVC
16:29 53.4 °F 43.1 °F 30.13 in Calm     68% 0.01 in 67.00 W/m2 RA
El Dorado Weather
Compliments of Weather Underground - 2.5 mb




Google